[[{"header":{"parameterUnit":"m.s-1","parameterCategory":1,"la1":30.2991,"la2":30.254,"lo1":-89.0895,"lo2":-89.0444,"dy":0.0017,"dx":0.0017,"nx":28,"ny":28,"refTime":"2023-10-25T21:00:00:Z","depth":0,"parameterNumber":2,"parameterNumberName":"U-component_of_WINDS"},"data":[0,0,0,0,0,0,0,0,0,0,0,0,0,0,0,0,0,0,0,0,0,0,0,0,0,0,0,0,0,0,0,0,0,0,0,0,0,0,0,0,0,0,0,0,0,0,0,0,0,0,0,0,0,0,0,0,0,0,-4.128,-4.1281,0,-4.1338,-4.1339,-4.134,-4.1259,-4.1256,-4.1253,-4.1251,-4.1308,-4.1312,-4.1316,0,0,0,0,0,0,0,0,0,0,0,0,0,-4.11,-4.1103,-4.128,-4.1281,-4.1282,-4.1338,-4.1339,-4.134,-4.126,-4.1256,-4.1253,-4.1249,-4.1307,-4.1311,-4.1317,0,0,0,0,0,0,0,0,0,0,0,0,0,-4.117,-4.1105,-4.128,-4.1248,-4.1246,-4.1338,-4.1339,-4.134,-4.126,-4.1256,-4.1252,-4.1248,-4.1305,-4.1311,-4.1317,-4.1442,0,0,-4.1336,-4.1339,0,0,0,0,0,0,0,0,-4.1166,-4.1177,-4.1252,-4.1251,-4.1248,-4.1287,-4.1296,-4.1374,-4.1261,-4.1255,-4.1251,-4.1246,-4.1304,-4.131,-4.1331,-4.1445,-4.1447,-4.1337,-4.1341,-4.1343,-4.1345,0,0,0,0,0,0,0,-4.1161,-4.1174,-4.1303,-4.1254,-4.1251,-4.1231,-4.1237,-4.1311,-4.1303,-4.1255,-4.1249,-4.1258,-4.1302,-4.1325,-4.1331,-4.1448,-4.1337,-4.1342,-4.1346,-4.1349,-4.1669,-4.1674,0,0,0,0,0,0,-4.116,-4.117,-4.1301,-4.1305,-4.1196,-4.1238,-4.1244,-4.1279,-4.1302,-4.1301,-4.1261,-4.1254,-4.1316,-4.1324,-4.1333,-4.1481,-4.1343,-4.1349,-4.1353,-4.1665,-4.167,-4.1676,0,0,0,0,0,0,-4.1157,-4.1173,-4.1299,-4.1236,-4.125,-4.1246,-4.1286,-4.1282,-4.1304,-4.1306,-4.1305,-4.1285,-4.1313,-4.1324,-4.1416,-4.1482,-4.1352,-4.1358,-4.1659,-4.1666,-4.1673,-4.1778,0,0,0,0,0,0,-4.1152,-4.1172,-4.1219,-4.1238,-4.1254,-4.1381,-4.129,-4.1287,-4.1316,-4.1307,-4.1329,-4.1328,-4.1311,-4.1407,-4.1422,-4.1488,-4.1363,-4.1653,-4.1662,-4.1671,-4.1769,-4.1788,-4.1805,0,0,0,0,0,-4.1146,-4.1245,-4.1222,-4.1238,-4.1313,-4.1385,-4.1394,-4.1372,-4.1322,-4.1369,-4.1371,-4.1327,-4.1473,-4.1417,-4.1434,-4.1503,-4.1649,-4.166,-4.167,-4.1761,-4.1784,-4.1804,0,0,0,0,0,0,-4.1232,-4.1247,-4.1221,-4.1329,-4.1357,-4.1371,-4.143,-4.1398,-4.1439,-4.1429,-4.14,-4.1405,-4.1504,-4.1512,-4.145,-4.1626,-4.1552,-4.1567,-4.1616,-4.1638,-4.1656,-4.1651,-4.1368,0,0,0,0,0,-4.1265,-4.1322,-4.1332,-4.1427,-4.1442,-4.1434,-4.1464,-4.1446,-4.1473,-4.1483,-4.1491,-4.1519,-4.1571,-4.1605,-4.1653,-4.1771,-4.1775,-4.1827,-4.1845,-4.1859,-4.1871,-4.1936,-4.1959,-4.1711,-4.171,-4.171,0,0,-4.133,-4.1346,-4.1383,-4.1445,-4.1463,-4.1524,-4.1444,-4.151,-4.1555,-4.1493,-4.158,-4.1588,-4.1617,-4.1723,-4.177,-4.1733,-4.1942,-4.1873,-4.1885,-4.1889,-4.1949,-4.1973,-4.1994,-4.1718,-4.1717,-4.1715,0,0,-4.1481,-4.1499,-4.1581,-4.1602,-4.1633,-4.1628,-4.1648,-4.1668,-4.1671,-4.1759,-4.1714,-4.1767,-4.1857,-4.188,-4.1903,-4.2068,-4.203,-4.2084,-4.2177,-4.224,-4.226,-4.2277,-4.2335,-4.2357,-4.2097,-4.2097,-4.2097,0,-4.1559,-4.1648,-4.1626,-4.1697,-4.1726,-4.1675,-4.1758,-4.178,-4.1824,-4.1845,-4.1804,-4.1918,-4.1933,-4.2044,-4.2085,-4.2106,-4.2128,-4.208,-4.2259,-4.2276,-4.2291,-4.2347,-4.2369,-4.2104,-4.2103,-4.2102,-4.2102,0,-4.1743,-4.1806,-4.1868,-4.1914,-4.195,-4.2027,-4.2017,-4.2056,-4.2036,-4.2035,-4.2127,-4.2144,-4.2196,-4.2221,-4.2201,-4.2331,-4.2307,-4.2263,-4.2188,-4.2322,-4.2374,-4.2395,-4.2113,-4.211,-4.2109,-4.2107,0,0,-4.1946,-4.1982,-4.2005,-4.2026,-4.2058,-4.2106,-4.2182,-4.2234,-4.2268,-4.2302,-4.2364,-4.2444,-4.2404,-4.2431,-4.2414,-4.2469,-4.26,-4.2419,-4.2419,-4.2451,-4.2744,-4.2776,-4.2801,-4.2576,-4.258,-4.2583,-4.2742,0,-4.2096,-4.2227,-4.2211,-4.2335,-4.2394,-4.2349,-4.2415,-4.2442,-4.2445,-4.2495,-4.2498,-4.2555,-4.2499,-4.2515,-4.2568,-4.2572,-4.2658,-4.2561,-4.2633,-4.2636,-4.2626,-4.2828,-4.2861,-4.3009,-4.2762,-4.2765,-4.2768,0,-4.2288,-4.2331,-4.2462,-4.2488,-4.2511,-4.2571,-4.2618,-4.2667,-4.2698,-4.2696,-4.2729,-4.2703,-4.2779,-4.2706,-4.2811,-4.2745,-4.2775,-4.2782,-4.2787,-4.2791,-4.2708,-4.2836,-4.3056,-4.3078,-4.2799,-4.2797,-4.2794,0,-4.2422,-4.2513,-4.2603,-4.2623,-4.2655,-4.2698,-4.2714,-4.274,-4.2774,-4.2816,-4.2837,-4.2887,-4.2914,-4.2954,-4.2943,-4.289,-4.3051,-4.2976,-4.3051,-4.3052,-4.3085,-4.3082,-4.3311,-4.3107,-4.3106,-4.3106,-4.3106,0,-4.2591,-4.2672,-4.2664,-4.272,-4.2811,-4.2793,-4.2884,-4.2894,-4.2919,-4.2976,-4.2941,-4.2995,-4.2977,-4.3031,-4.3023,-4.3112,-4.3124,-4.3125,-4.3122,-4.3127,-4.3127,-4.3144,-4.3133,-4.3112,-4.3111,-4.3109,-4.3108,0,-4.2754,-4.2752,-4.2848,-4.2872,-4.2881,-4.2947,-4.2967,-4.302,-4.3022,-4.3095,-4.3111,-4.3113,-4.3175,-4.3169,-4.3238,-4.3232,-4.3342,-4.3327,-4.3332,-4.3328,-4.3403,-4.3396,-4.3649,-4.3681,-4.3458,-4.346,-4.3462,0,-4.2861,-4.2923,-4.2955,-4.2992,-4.3011,-4.3069,-4.3104,-4.309,-4.3128,-4.317,-4.3218,-4.3277,-4.3323,-4.3424,-4.3432,-4.3485,-4.347,-4.3556,-4.3478,-4.3482,-4.3471,-4.3467,-4.3473,-4.357,-4.3573,-4.3575,-4.3576,0,-4.305,-4.3047,-4.3098,-4.3151,-4.3194,-4.3234,-4.327,-4.3302,-4.3292,-4.3337,-4.34,-4.3437,-4.3509,-4.3568,-4.3619,-4.3635,-4.3605,-4.3602,-4.3622,-4.3627,-4.3627,-4.3627,-4.3372,-4.3595,-4.3593,-4.3592,-4.3591,-4.359,-4.3187,-4.3241,-4.3273,-4.3333,-4.336,-4.3396,-4.3447,-4.3457,-4.351,-4.3568,-4.3557,-4.3629,-4.3661,-4.3727,-4.3749,-4.3805,-4.3774,-4.3803,-4.381,-4.3817,-4.3826,-4.362,-4.3815,-4.3814,-4.3814,-4.3813,-4.3813,0,-4.3374,-4.3393,-4.3449,-4.3502,-4.3549,-4.352,-4.3559,-4.3601,-4.3665,-4.3698,-4.3745,-4.382,-4.3878,-4.3893,-4.3949,-4.3991,-4.3979,-4.4007,-4.4002,-4.4007,-4.3851,-4.3827,-4.4016,-4.4016,-4.4016,-4.4016,-4.4016,-4.4016,-4.3476,-4.3566,-4.3568,-4.3672,-4.3691,-4.3762,-4.3788,-4.3821,-4.3848,-4.3933,-4.3982,-4.3992,-4.4018,-4.4077,-4.4129,-4.4132,-4.4154,-4.4187,-4.4184,-4.4038,-4.4017,-4.3998,-4.3976,-4.4192,-4.4193,-4.4335,-4.4337,-4.4338]},{"header":{"parameterUnit":"m.s-1","parameterCategory":1,"la1":30.2991,"la2":30.254,"lo1":-89.0895,"lo2":-89.0444,"dy":0.0017,"dx":0.0017,"nx":28,"ny":28,"refTime":"2023-10-25T21:00:00:Z","depth":0,"parameterNumber":3,"parameterNumberName":"V-component_of_WINDS"},"data":[0,0,0,0,0,0,0,0,0,0,0,0,0,0,0,0,0,0,0,0,0,0,0,0,0,0,0,0,0,0,0,0,0,0,0,0,0,0,0,0,0,0,0,0,0,0,0,0,0,0,0,0,0,0,0,0,0,0,1.7114,1.7115,0,1.7138,1.7139,1.7139,1.7097,1.7096,1.7095,1.7093,1.7116,1.7118,1.712,0,0,0,0,0,0,0,0,0,0,0,0,0,1.7033,1.7035,1.7114,1.7115,1.7115,1.7138,1.7139,1.7139,1.7098,1.7096,1.7094,1.7093,1.7115,1.7118,1.712,0,0,0,0,0,0,0,0,0,0,0,0,0,1.7064,1.7036,1.7114,1.7097,1.7096,1.7138,1.7139,1.7139,1.7098,1.7096,1.7094,1.7092,1.7115,1.7117,1.712,1.718,0,0,1.7129,1.713,0,0,0,0,0,0,0,0,1.7062,1.7067,1.7099,1.7098,1.7097,1.7113,1.7118,1.7153,1.7099,1.7097,1.7093,1.7091,1.7116,1.7119,1.7128,1.7181,1.7182,1.7129,1.7131,1.7132,1.7133,0,0,0,0,0,0,0,1.706,1.7066,1.7124,1.71,1.7099,1.7089,1.7091,1.7125,1.7118,1.7097,1.7094,1.7098,1.7115,1.7125,1.7128,1.7182,1.7129,1.7132,1.7133,1.7134,1.7288,1.7291,0,0,0,0,0,0,1.706,1.7064,1.7123,1.7124,1.7074,1.7092,1.7094,1.711,1.7118,1.7117,1.71,1.7096,1.7122,1.7125,1.7129,1.7201,1.7132,1.7135,1.7136,1.7286,1.7289,1.7291,0,0,0,0,0,0,1.7059,1.7066,1.7122,1.7094,1.71,1.7095,1.7114,1.7111,1.7121,1.712,1.7118,1.7111,1.712,1.7125,1.7168,1.7201,1.7136,1.7139,1.7283,1.7287,1.729,1.7345,0,0,0,0,0,0,1.7057,1.7066,1.7088,1.7094,1.7102,1.7161,1.7115,1.7113,1.7127,1.7122,1.713,1.7129,1.7119,1.7164,1.7171,1.7204,1.7141,1.728,1.7285,1.7289,1.734,1.735,1.7359,0,0,0,0,0,1.7054,1.7101,1.7089,1.7096,1.7129,1.7163,1.7167,1.7155,1.7129,1.7152,1.7152,1.7129,1.7197,1.7169,1.7176,1.7211,1.7278,1.7283,1.7289,1.7336,1.7348,1.7358,0,0,0,0,0,0,1.7096,1.7101,1.7088,1.7139,1.7151,1.7156,1.7183,1.7167,1.7186,1.7181,1.7164,1.7166,1.7214,1.7216,1.7185,1.7271,1.7233,1.724,1.7267,1.7278,1.7287,1.7286,1.7143,0,0,0,0,0,1.7112,1.7139,1.7142,1.7186,1.7193,1.7188,1.7202,1.7192,1.7203,1.7208,1.721,1.7222,1.7246,1.7262,1.7284,1.7341,1.7343,1.7368,1.7378,1.7385,1.7391,1.7424,1.7436,1.7309,1.7309,1.7309,0,0,1.7144,1.715,1.7167,1.7195,1.7203,1.7232,1.7192,1.7223,1.7245,1.7212,1.7254,1.7257,1.7269,1.732,1.7343,1.7324,1.7427,1.7392,1.7398,1.74,1.7431,1.7443,1.7454,1.7313,1.7312,1.7311,0,0,1.7217,1.7224,1.7263,1.7273,1.7287,1.7283,1.7293,1.7301,1.7302,1.7345,1.7322,1.7347,1.7388,1.7399,1.741,1.7492,1.7472,1.7499,1.7547,1.7579,1.7589,1.7598,1.7629,1.764,1.7506,1.7506,1.7506,0,1.7254,1.7297,1.7285,1.7319,1.7333,1.7307,1.7348,1.7358,1.7377,1.7388,1.7367,1.7421,1.7427,1.7482,1.7502,1.7511,1.7523,1.7498,1.7589,1.7598,1.7606,1.7635,1.7647,1.7509,1.7509,1.7508,1.7508,0,1.7344,1.7374,1.7404,1.7427,1.7444,1.7481,1.7475,1.7494,1.7484,1.7483,1.7528,1.7535,1.756,1.7572,1.7561,1.7626,1.7614,1.7592,1.7554,1.7621,1.7649,1.766,1.7514,1.7513,1.7512,1.7511,0,0,1.7441,1.746,1.7471,1.7482,1.7498,1.7521,1.7558,1.7584,1.7601,1.7617,1.7648,1.7686,1.7666,1.7679,1.7669,1.7698,1.7765,1.7671,1.7672,1.769,1.784,1.7858,1.7871,1.7753,1.7755,1.7756,1.7839,0,1.7515,1.7581,1.7573,1.7635,1.7664,1.7642,1.7675,1.7688,1.7689,1.7715,1.7716,1.7744,1.7714,1.7722,1.7749,1.7751,1.7795,1.7745,1.7783,1.7784,1.7781,1.7885,1.7903,1.7981,1.785,1.7852,1.7853,0,1.761,1.7632,1.7698,1.7712,1.7724,1.7753,1.7778,1.7802,1.7818,1.7817,1.7833,1.782,1.7858,1.782,1.7874,1.784,1.7856,1.7859,1.7862,1.7865,1.7823,1.7892,1.8005,1.8018,1.7869,1.7868,1.7867,0,1.7677,1.7722,1.7769,1.7779,1.7796,1.7818,1.7826,1.784,1.7857,1.7878,1.789,1.7915,1.7929,1.7949,1.7943,1.7916,1.7999,1.796,1.8,1.8001,1.8018,1.8018,1.8137,1.8027,1.8027,1.8027,1.8027,0,1.7761,1.7802,1.78,1.7828,1.7875,1.7866,1.7913,1.7918,1.7931,1.7961,1.7943,1.7971,1.7961,1.799,1.7985,1.8032,1.8038,1.8039,1.8037,1.8041,1.8041,1.8051,1.8045,1.803,1.8029,1.8029,1.8028,0,1.7843,1.7842,1.7892,1.7906,1.791,1.7944,1.7956,1.7984,1.7985,1.8023,1.8031,1.8033,1.8066,1.8062,1.8098,1.8095,1.8154,1.8145,1.8149,1.8147,1.8188,1.8185,1.8318,1.8336,1.8214,1.8215,1.8216,0,1.7896,1.7928,1.7947,1.7967,1.7977,1.8008,1.8026,1.802,1.804,1.8062,1.8088,1.8119,1.8144,1.8197,1.8201,1.8229,1.8222,1.8267,1.8226,1.823,1.8224,1.8223,1.8227,1.8275,1.8276,1.8277,1.8278,0,1.7992,1.7992,1.8019,1.8048,1.8072,1.8093,1.8113,1.813,1.8126,1.815,1.8184,1.8203,1.8242,1.8274,1.8301,1.8309,1.8294,1.8292,1.8303,1.8307,1.8309,1.831,1.8172,1.8288,1.8287,1.8287,1.8286,1.8286,1.8063,1.8092,1.811,1.8143,1.8158,1.8178,1.8206,1.8212,1.8241,1.8272,1.8267,1.8306,1.8324,1.8359,1.8371,1.8402,1.8385,1.8401,1.8405,1.8409,1.8415,1.8304,1.8406,1.8406,1.8406,1.8406,1.8405,0,1.8159,1.8171,1.8201,1.8232,1.8258,1.8243,1.8265,1.8288,1.8323,1.8342,1.8368,1.8408,1.844,1.8449,1.8479,1.8503,1.8497,1.8511,1.851,1.8512,1.8427,1.8415,1.8516,1.8516,1.8516,1.8516,1.8516,1.8516,1.8212,1.8262,1.8264,1.8321,1.8332,1.8372,1.8386,1.8406,1.8421,1.8468,1.8495,1.8501,1.8516,1.8549,1.8578,1.858,1.8592,1.861,1.8609,1.8529,1.8518,1.8507,1.8496,1.8613,1.8613,1.8692,1.8693,1.8694]}]]